Terminal Aerodrome Forecast
Issued by NWS Upton, NY

Home | Current Version | Previous Version | Text Only | Print | Product List | Glossary On
Versions: 1 2 3 4 5 6 7 8 9 10 11 12 13 14 15 16 17 18 19 20 21 22 23 24 25 26 27 28
000
FTUS41 KOKX 310230 AAB
TAFJFK
TAF AMD
KJFK 310230Z 3103/0106 22010KT P6SM VCSH SCT050 BKN100
     FM310500 23008KT P6SM FEW050 BKN100
     FM311100 25008KT P6SM FEW050 SCT100 BKN250
     FM311600 24013KT P6SM FEW050 BKN250
     FM311900 24016G21KT P6SM FEW050 BKN250
     FM010100 26010KT P6SM SCT250=

USA.gov is the U.S. government's official web portal to all federal, state and local government web resources and services.